contact:dominique.lefevre@mio.osupytheas.fr, maurice.libes@osupytheas.fr, didier.mallarino@osupytheas.fr
Project:EMSO http://www.emso-fr.org/EMSO-France
Depth: 2436.0 m
Title:EMSO Ligure Ouest : Data MII capteur MICROCAT
DateTime_Computer,Latitude,Longitude,Temperature,Conductivity,Pressure,DateTime_Instrument
DateTime_Computer,Latitude,Longitude,degC,S m-1,dbar,DateTime_Instrument
2019-05-25T00:02:09Z,42.805,6.029,13.2950,4.59951,2469.69,2019-5-25T02:02:24Z
2019-05-25T00:05:12Z,42.805,6.029,13.2952,4.59951,2469.75,2019-5-25T02:05:27Z
2019-05-25T00:08:15Z,42.805,6.029,13.2950,4.59951,2469.75,2019-5-25T02:08:30Z
2019-05-25T00:11:18Z,42.805,6.029,13.2952,4.59951,2469.69,2019-5-25T02:11:33Z
2019-05-25T00:14:21Z,42.805,6.029,13.2953,4.59957,2469.727,2019-5-25T02:14:36Z
2019-05-25T00:17:24Z,42.805,6.029,13.2953,4.59954,2469.704,2019-5-25T02:17:39Z
2019-05-25T00:20:27Z,42.805,6.029,13.2949,4.59952,2469.667,2019-5-25T02:20:42Z
2019-05-25T00:23:30Z,42.805,6.029,13.2946,4.59951,2469.727,2019-5-25T02:23:45Z
2019-05-25T00:26:33Z,42.805,6.029,13.2956,4.59952,2469.704,2019-5-25T02:26:47Z
2019-05-25T00:29:36Z,42.805,6.029,13.2952,4.59954,2469.69,2019-5-25T02:29:50Z
2019-05-25T00:32:39Z,42.805,6.029,13.2948,4.59952,2469.713,2019-5-25T02:32:53Z
2019-05-25T00:35:42Z,42.805,6.029,13.2952,4.59953,2469.704,2019-5-25T02:35:56Z
2019-05-25T00:38:45Z,42.805,6.029,13.2953,4.59954,2469.704,2019-5-25T02:38:59Z
2019-05-25T00:41:48Z,42.805,6.029,13.2953,4.59953,2469.704,2019-5-25T02:42:02Z
2019-05-25T00:44:51Z,42.805,6.029,13.2948,4.59952,2469.69,2019-5-25T02:45:05Z
2019-05-25T00:47:54Z,42.805,6.029,13.2953,4.59962,2469.704,2019-5-25T02:48:08Z
2019-05-25T00:50:57Z,42.805,6.029,13.2953,4.59952,2469.704,2019-5-25T02:51:11Z
2019-05-25T00:54:00Z,42.805,6.029,13.2951,4.59955,2469.69,2019-5-25T02:54:14Z
2019-05-25T00:57:02Z,42.805,6.029,13.2951,4.59960,2469.704,2019-5-25T02:57:17Z
2019-05-25T01:00:05Z,42.805,6.029,13.2949,4.59967,2469.704,2019-5-25T03:00:20Z
2019-05-25T01:03:08Z,42.805,6.029,13.2951,4.59954,2469.713,2019-5-25T03:03:23Z
2019-05-25T01:06:11Z,42.805,6.029,13.2952,4.59956,2469.69,2019-5-25T03:06:26Z
2019-05-25T01:09:14Z,42.805,6.029,13.2951,4.59961,2469.727,2019-5-25T03:09:29Z
2019-05-25T01:12:17Z,42.805,6.029,13.2949,4.59954,2469.704,2019-5-25T03:12:32Z
2019-05-25T01:15:20Z,42.805,6.029,13.2953,4.59956,2469.69,2019-5-25T03:15:35Z
2019-05-25T01:18:23Z,42.805,6.029,13.2953,4.59954,2469.667,2019-5-25T03:18:38Z
2019-05-25T01:21:26Z,42.805,6.029,13.2954,4.59955,2469.704,2019-5-25T03:21:41Z
2019-05-25T01:24:29Z,42.805,6.029,13.2954,4.59954,2469.704,2019-5-25T03:24:44Z
2019-05-25T01:27:32Z,42.805,6.029,13.2953,4.59954,2469.69,2019-5-25T03:27:46Z
2019-05-25T01:30:35Z,42.805,6.029,13.2952,4.59954,2469.667,2019-5-25T03:30:49Z
2019-05-25T01:33:38Z,42.805,6.029,13.2976,4.59970,2469.704,2019-5-25T03:33:52Z
2019-05-25T01:36:41Z,42.805,6.029,13.2951,4.59966,2469.68,2019-5-25T03:36:55Z
2019-05-25T01:39:44Z,42.805,6.029,13.2951,4.59978,2469.704,2019-5-25T03:39:58Z
2019-05-25T01:42:47Z,42.805,6.029,13.2953,4.59979,2469.69,2019-5-25T03:43:01Z
2019-05-25T01:45:50Z,42.805,6.029,13.2949,4.59964,2469.69,2019-5-25T03:46:04Z
2019-05-25T01:48:53Z,42.805,6.029,13.2952,4.59991,2469.704,2019-5-25T03:49:07Z
2019-05-25T01:51:56Z,42.805,6.029,13.2953,4.59991,2469.667,2019-5-25T03:52:10Z
2019-05-25T01:54:58Z,42.805,6.029,13.2953,4.59970,2469.68,2019-5-25T03:55:13Z
2019-05-25T01:58:01Z,42.805,6.029,13.2954,4.59962,2469.667,2019-5-25T03:58:16Z
2019-05-25T02:01:04Z,42.805,6.029,13.3120,4.59964,2469.68,2019-5-25T04:01:19Z
2019-05-25T02:04:07Z,42.805,6.029,13.3006,4.59980,2469.62,2019-5-25T04:04:22Z
2019-05-25T02:07:10Z,42.805,6.029,13.2985,4.60005,2469.657,2019-5-25T04:07:25Z
2019-05-25T02:10:13Z,42.805,6.029,13.2995,4.60000,2469.667,2019-5-25T04:10:28Z
2019-05-25T02:13:16Z,42.805,6.029,13.3005,4.60036,2469.634,2019-5-25T04:13:31Z
2019-05-25T02:16:19Z,42.805,6.029,13.2976,4.60023,2469.667,2019-5-25T04:16:34Z
2019-05-25T02:19:22Z,42.805,6.029,13.2981,4.60047,2469.62,2019-5-25T04:19:37Z
2019-05-25T02:22:25Z,42.805,6.029,13.2979,4.60007,2469.657,2019-5-25T04:22:40Z
2019-05-25T02:25:28Z,42.805,6.029,13.2992,4.60037,2469.657,2019-5-25T04:25:43Z
2019-05-25T02:28:31Z,42.805,6.029,13.3014,4.60054,2469.667,2019-5-25T04:28:45Z
2019-05-25T02:31:34Z,42.805,6.029,13.3019,4.60024,2469.634,2019-5-25T04:31:48Z
2019-05-25T02:34:37Z,42.805,6.029,13.3011,4.59998,2469.68,2019-5-25T04:34:51Z
2019-05-25T02:37:40Z,42.805,6.029,13.3006,4.60021,2469.643,2019-5-25T04:37:54Z
2019-05-25T02:40:43Z,42.805,6.029,13.3014,4.60017,2469.634,2019-5-25T04:40:57Z
2019-05-25T02:43:46Z,42.805,6.029,13.3021,4.60017,2469.657,2019-5-25T04:44:00Z
2019-05-25T02:46:49Z,42.805,6.029,13.3024,4.59994,2469.657,2019-5-25T04:47:03Z
2019-05-25T02:49:52Z,42.805,6.029,13.3044,4.59999,2469.68,2019-5-25T04:50:06Z
2019-05-25T02:52:55Z,42.805,6.029,13.3041,4.60003,2469.643,2019-5-25T04:53:09Z
2019-05-25T02:55:57Z,42.805,6.029,13.3041,4.60008,2469.657,2019-5-25T04:56:12Z
2019-05-25T02:59:00Z,42.805,6.029,13.3039,4.60022,2469.667,2019-5-25T04:59:15Z
2019-05-25T03:02:03Z,42.805,6.029,13.3038,4.59997,2469.634,2019-5-25T05:02:18Z
2019-05-25T03:05:06Z,42.805,6.029,13.3031,4.60019,2469.68,2019-5-25T05:05:21Z
2019-05-25T03:08:09Z,42.805,6.029,13.3034,4.59997,2469.671,2019-5-25T05:08:24Z
2019-05-25T03:11:12Z,42.805,6.029,13.3031,4.60014,2469.634,2019-5-25T05:11:27Z
2019-05-25T03:14:15Z,42.805,6.029,13.3037,4.60029,2469.68,2019-5-25T05:14:30Z
2019-05-25T03:17:18Z,42.805,6.029,13.3040,4.60016,2469.657,2019-5-25T05:17:33Z
2019-05-25T03:20:21Z,42.805,6.029,13.3043,4.60000,2469.634,2019-5-25T05:20:36Z
2019-05-25T03:23:24Z,42.805,6.029,13.3026,4.59985,2469.657,2019-5-25T05:23:39Z
2019-05-25T03:26:27Z,42.805,6.029,13.3043,4.59991,2469.62,2019-5-25T05:26:41Z
2019-05-25T03:29:30Z,42.805,6.029,13.3051,4.59996,2469.62,2019-5-25T05:29:44Z
2019-05-25T03:32:33Z,42.805,6.029,13.3039,4.59991,2469.634,2019-5-25T05:32:47Z
2019-05-25T03:35:36Z,42.805,6.029,13.3043,4.60001,2469.634,2019-5-25T05:35:50Z
2019-05-25T03:38:39Z,42.805,6.029,13.3033,4.59991,2469.61,2019-5-25T05:38:53Z
2019-05-25T03:41:42Z,42.805,6.029,13.3034,4.59986,2469.597,2019-5-25T05:41:56Z
2019-05-25T03:44:45Z,42.805,6.029,13.3019,4.59985,2469.61,2019-5-25T05:44:59Z
2019-05-25T03:47:48Z,42.805,6.029,13.3022,4.60019,2469.634,2019-5-25T05:48:02Z
2019-05-25T03:50:51Z,42.805,6.029,13.3033,4.60023,2469.643,2019-5-25T05:51:05Z
2019-05-25T03:53:53Z,42.805,6.029,13.3043,4.60005,2469.667,2019-5-25T05:54:08Z
2019-05-25T03:56:56Z,42.805,6.029,13.3040,4.60000,2469.657,2019-5-25T05:57:11Z
2019-05-25T03:59:59Z,42.805,6.029,13.3036,4.60011,2469.587,2019-5-25T06:00:14Z
2019-05-25T04:03:02Z,42.805,6.029,13.3015,4.60006,2469.657,2019-5-25T06:03:17Z
2019-05-25T04:06:05Z,42.805,6.029,13.3029,4.59991,2469.657,2019-5-25T06:06:20Z
2019-05-25T04:09:08Z,42.805,6.029,13.3021,4.59985,2469.61,2019-5-25T06:09:23Z
2019-05-25T04:12:11Z,42.805,6.029,13.3015,4.60007,2469.634,2019-5-25T06:12:26Z
2019-05-25T04:15:14Z,42.805,6.029,13.3028,4.60000,2469.634,2019-5-25T06:15:29Z
2019-05-25T04:18:17Z,42.805,6.029,13.3029,4.60026,2469.634,2019-5-25T06:18:32Z
2019-05-25T04:21:20Z,42.805,6.029,13.3024,4.60020,2469.597,2019-5-25T06:21:35Z
2019-05-25T04:24:23Z,42.805,6.029,13.3040,4.59993,2469.62,2019-5-25T06:24:38Z
2019-05-25T04:27:26Z,42.805,6.029,13.3041,4.59999,2469.597,2019-5-25T06:27:40Z
2019-05-25T04:30:29Z,42.805,6.029,13.3006,4.60022,2469.587,2019-5-25T06:30:43Z
2019-05-25T04:33:32Z,42.805,6.029,13.3002,4.59997,2469.62,2019-5-25T06:33:46Z
2019-05-25T04:36:35Z,42.805,6.029,13.3011,4.59996,2469.62,2019-5-25T06:36:49Z
2019-05-25T04:39:38Z,42.805,6.029,13.3014,4.60011,2469.587,2019-5-25T06:39:52Z
2019-05-25T04:42:41Z,42.805,6.029,13.3039,4.60003,2469.61,2019-5-25T06:42:55Z
2019-05-25T04:45:44Z,42.805,6.029,13.3006,4.59990,2469.61,2019-5-25T06:45:58Z
2019-05-25T04:48:47Z,42.805,6.029,13.3004,4.60008,2469.61,2019-5-25T06:49:01Z
2019-05-25T04:51:50Z,42.805,6.029,13.3029,4.60001,2469.61,2019-5-25T06:52:04Z
2019-05-25T04:54:52Z,42.805,6.029,13.3018,4.59997,2469.62,2019-5-25T06:55:07Z
2019-05-25T04:57:55Z,42.805,6.029,13.3010,4.60006,2469.634,2019-5-25T06:58:10Z
2019-05-25T05:00:58Z,42.805,6.029,13.3020,4.59991,2469.587,2019-5-25T07:01:13Z
2019-05-25T05:04:01Z,42.805,6.029,13.2989,4.60000,2469.61,2019-5-25T07:04:16Z
2019-05-25T05:07:04Z,42.805,6.029,13.2974,4.59990,2469.634,2019-5-25T07:07:19Z
2019-05-25T05:10:07Z,42.805,6.029,13.3008,4.59994,2469.61,2019-5-25T07:10:22Z
2019-05-25T05:13:10Z,42.805,6.029,13.2996,4.60032,2469.62,2019-5-25T07:13:25Z
2019-05-25T05:16:13Z,42.805,6.029,13.3018,4.60001,2469.61,2019-5-25T07:16:28Z
2019-05-25T05:19:16Z,42.805,6.029,13.3026,4.60007,2469.573,2019-5-25T07:19:31Z
2019-05-25T05:22:19Z,42.805,6.029,13.2963,4.59997,2469.573,2019-5-25T07:22:34Z
2019-05-25T05:25:22Z,42.805,6.029,13.3046,4.60011,2469.597,2019-5-25T07:25:36Z
2019-05-25T05:28:25Z,42.805,6.029,13.3001,4.60011,2469.573,2019-5-25T07:28:39Z
2019-05-25T05:31:28Z,42.805,6.029,13.2962,4.59988,2469.61,2019-5-25T07:31:42Z
2019-05-25T05:34:31Z,42.805,6.029,13.2957,4.60016,2469.573,2019-5-25T07:34:45Z
2019-05-25T05:37:34Z,42.805,6.029,13.2961,4.59981,2469.61,2019-5-25T07:37:48Z
2019-05-25T05:40:37Z,42.805,6.029,13.3019,4.59996,2469.624,2019-5-25T07:40:51Z
2019-05-25T05:43:40Z,42.805,6.029,13.3080,4.59993,2469.573,2019-5-25T07:43:54Z
2019-05-25T05:46:43Z,42.805,6.029,13.2985,4.59996,2469.597,2019-5-25T07:46:57Z
2019-05-25T05:49:46Z,42.805,6.029,13.2958,4.60000,2469.61,2019-5-25T07:50:00Z
2019-05-25T05:52:48Z,42.805,6.029,13.2958,4.59982,2469.587,2019-5-25T07:53:03Z
2019-05-25T05:55:51Z,42.805,6.029,13.2952,4.59986,2469.597,2019-5-25T07:56:06Z
2019-05-25T05:58:54Z,42.805,6.029,13.2952,4.59985,2469.573,2019-5-25T07:59:09Z
2019-05-25T06:01:57Z,42.805,6.029,13.2953,4.59979,2469.61,2019-5-25T08:02:12Z
2019-05-25T06:05:00Z,42.805,6.029,13.2958,4.59980,2469.573,2019-5-25T08:05:15Z
2019-05-25T06:08:03Z,42.805,6.029,13.2949,4.59974,2469.573,2019-5-25T08:08:18Z
2019-05-25T06:11:06Z,42.805,6.029,13.2957,4.59971,2469.587,2019-5-25T08:11:21Z
2019-05-25T06:14:09Z,42.805,6.029,13.2950,4.59968,2469.587,2019-5-25T08:14:24Z
2019-05-25T06:17:12Z,42.805,6.029,13.2957,4.59964,2469.597,2019-5-25T08:17:27Z
2019-05-25T06:20:15Z,42.805,6.029,13.2983,4.59976,2469.563,2019-5-25T08:20:30Z
2019-05-25T06:23:18Z,42.805,6.029,13.2959,4.59986,2469.573,2019-5-25T08:23:32Z
2019-05-25T06:26:21Z,42.805,6.029,13.2953,4.59980,2469.587,2019-5-25T08:26:35Z
2019-05-25T06:29:24Z,42.805,6.029,13.2953,4.59966,2469.583,2019-5-25T08:29:38Z
2019-05-25T06:32:27Z,42.805,6.029,13.2955,4.59956,2469.601,2019-5-25T08:32:41Z
2019-05-25T06:35:30Z,42.805,6.029,13.2948,4.59956,2469.61,2019-5-25T08:35:44Z
2019-05-25T06:38:33Z,42.805,6.029,13.2948,4.59956,2469.61,2019-5-25T08:38:47Z
2019-05-25T06:41:36Z,42.805,6.029,13.2950,4.59954,2469.573,2019-5-25T08:41:50Z
2019-05-25T06:44:39Z,42.805,6.029,13.2952,4.59954,2469.559,2019-5-25T08:44:53Z
2019-05-25T06:47:42Z,42.805,6.029,13.2952,4.59952,2469.597,2019-5-25T08:47:56Z
2019-05-25T06:50:45Z,42.805,6.029,13.2952,4.59955,2469.587,2019-5-25T08:50:59Z
2019-05-25T06:53:47Z,42.805,6.029,13.2948,4.59955,2469.62,2019-5-25T08:54:02Z
2019-05-25T06:56:50Z,42.805,6.029,13.2951,4.59954,2469.61,2019-5-25T08:57:05Z
2019-05-25T06:59:53Z,42.805,6.029,13.2949,4.59954,2469.563,2019-5-25T09:00:08Z
2019-05-25T07:02:56Z,42.805,6.029,13.2951,4.59955,2469.587,2019-5-25T09:03:11Z
2019-05-25T07:05:59Z,42.805,6.029,13.2952,4.59954,2469.61,2019-5-25T09:06:14Z
2019-05-25T07:09:02Z,42.805,6.029,13.2949,4.59954,2469.563,2019-5-25T09:09:17Z
2019-05-25T07:12:05Z,42.805,6.029,13.2953,4.59954,2469.55,2019-5-25T09:12:20Z
2019-05-25T07:15:08Z,42.805,6.029,13.2950,4.59955,2469.587,2019-5-25T09:15:23Z
2019-05-25T07:18:11Z,42.805,6.029,13.2952,4.59955,2469.587,2019-5-25T09:18:26Z
2019-05-25T07:21:14Z,42.805,6.029,13.2947,4.59952,2469.573,2019-5-25T09:21:28Z
2019-05-25T07:24:17Z,42.805,6.029,13.2950,4.59952,2469.597,2019-5-25T09:24:31Z
2019-05-25T07:27:20Z,42.805,6.029,13.2952,4.59952,2469.597,2019-5-25T09:27:34Z
2019-05-25T07:30:23Z,42.805,6.029,13.2948,4.59951,2469.597,2019-5-25T09:30:37Z
2019-05-25T07:33:26Z,42.805,6.029,13.2951,4.59953,2469.587,2019-5-25T09:33:40Z
2019-05-25T07:36:29Z,42.805,6.029,13.2951,4.59954,2469.587,2019-5-25T09:36:43Z
2019-05-25T07:39:32Z,42.805,6.029,13.2949,4.59952,2469.597,2019-5-25T09:39:46Z
2019-05-25T07:42:35Z,42.805,6.029,13.2948,4.59956,2469.597,2019-5-25T09:42:49Z
2019-05-25T07:45:38Z,42.805,6.029,13.2950,4.59953,2469.587,2019-5-25T09:45:52Z
2019-05-25T07:48:41Z,42.805,6.029,13.2950,4.59951,2469.61,2019-5-25T09:48:55Z
2019-05-25T07:51:43Z,42.805,6.029,13.2951,4.59951,2469.573,2019-5-25T09:51:58Z
2019-05-25T07:54:46Z,42.805,6.029,13.2949,4.59952,2469.597,2019-5-25T09:55:01Z
2019-05-25T07:57:49Z,42.805,6.029,13.2949,4.59953,2469.573,2019-5-25T09:58:04Z
2019-05-25T08:00:52Z,42.805,6.029,13.2954,4.59951,2469.61,2019-5-25T10:01:07Z
2019-05-25T08:03:55Z,42.805,6.029,13.2950,4.59951,2469.62,2019-5-25T10:04:10Z
2019-05-25T08:06:58Z,42.805,6.029,13.2951,4.59953,2469.587,2019-5-25T10:07:13Z
2019-05-25T08:10:01Z,42.805,6.029,13.2949,4.59953,2469.62,2019-5-25T10:10:16Z
2019-05-25T08:13:04Z,42.805,6.029,13.2948,4.59952,2469.61,2019-5-25T10:13:19Z
2019-05-25T08:16:07Z,42.805,6.029,13.2953,4.59952,2469.61,2019-5-25T10:16:22Z
2019-05-25T08:19:10Z,42.805,6.029,13.2952,4.59954,2469.597,2019-5-25T10:19:25Z
2019-05-25T08:22:13Z,42.805,6.029,13.2951,4.59952,2469.62,2019-5-25T10:22:28Z
2019-05-25T08:25:16Z,42.805,6.029,13.2951,4.59953,2469.587,2019-5-25T10:25:30Z
2019-05-25T08:28:19Z,42.805,6.029,13.2952,4.59953,2469.597,2019-5-25T10:28:33Z
2019-05-25T08:31:22Z,42.805,6.029,13.2948,4.59952,2469.597,2019-5-25T10:31:36Z
2019-05-25T08:34:25Z,42.805,6.029,13.2950,4.59951,2469.597,2019-5-25T10:34:39Z
2019-05-25T08:37:28Z,42.805,6.029,13.2953,4.59951,2469.573,2019-5-25T10:37:42Z
2019-05-25T08:40:31Z,42.805,6.029,13.2954,4.59951,2469.61,2019-5-25T10:40:45Z
2019-05-25T08:43:34Z,42.805,6.029,13.2953,4.59952,2469.62,2019-5-25T10:43:48Z
2019-05-25T08:46:37Z,42.805,6.029,13.2946,4.59952,2469.573,2019-5-25T10:46:51Z
2019-05-25T08:49:40Z,42.805,6.029,13.2952,4.59951,2469.634,2019-5-25T10:49:54Z
2019-05-25T08:52:43Z,42.805,6.029,13.2949,4.59951,2469.61,2019-5-25T10:52:57Z
2019-05-25T08:55:45Z,42.805,6.029,13.2949,4.59952,2469.61,2019-5-25T10:56:00Z
2019-05-25T08:58:48Z,42.805,6.029,13.2951,4.59951,2469.61,2019-5-25T10:59:03Z
2019-05-25T09:01:51Z,42.805,6.029,13.2953,4.59952,2469.61,2019-5-25T11:02:06Z
2019-05-25T09:04:54Z,42.805,6.029,13.2949,4.59951,2469.61,2019-5-25T11:05:09Z
2019-05-25T09:07:57Z,42.805,6.029,13.2953,4.59952,2469.597,2019-5-25T11:08:12Z
2019-05-25T09:11:00Z,42.805,6.029,13.2953,4.59951,2469.657,2019-5-25T11:11:15Z
2019-05-25T09:14:03Z,42.805,6.029,13.2951,4.59950,2469.597,2019-5-25T11:14:18Z
2019-05-25T09:17:06Z,42.805,6.029,13.2950,4.59951,2469.61,2019-5-25T11:17:21Z
2019-05-25T09:20:09Z,42.805,6.029,13.2948,4.59952,2469.573,2019-5-25T11:20:24Z
2019-05-25T09:23:12Z,42.805,6.029,13.2951,4.59953,2469.597,2019-5-25T11:23:27Z
2019-05-25T09:26:15Z,42.805,6.029,13.2952,4.59951,2469.61,2019-5-25T11:26:30Z
2019-05-25T09:29:18Z,42.805,6.029,13.2951,4.59951,2469.634,2019-5-25T11:29:32Z
2019-05-25T09:32:21Z,42.805,6.029,13.2950,4.59951,2469.597,2019-5-25T11:32:35Z
2019-05-25T09:35:24Z,42.805,6.029,13.2952,4.59950,2469.62,2019-5-25T11:35:38Z
2019-05-25T09:38:27Z,42.805,6.029,13.2949,4.59952,2469.634,2019-5-25T11:38:41Z
2019-05-25T09:41:30Z,42.805,6.029,13.2952,4.59953,2469.624,2019-5-25T11:41:44Z
2019-05-25T09:44:33Z,42.805,6.029,13.2949,4.59951,2469.657,2019-5-25T11:44:47Z
2019-05-25T09:47:36Z,42.805,6.029,13.2952,4.59955,2469.634,2019-5-25T11:47:50Z
2019-05-25T09:50:39Z,42.805,6.029,13.2954,4.59951,2469.634,2019-5-25T11:50:53Z
2019-05-25T09:53:42Z,42.805,6.029,13.2952,4.59952,2469.597,2019-5-25T11:53:56Z
2019-05-25T09:56:45Z,42.805,6.029,13.2951,4.59951,2469.61,2019-5-25T11:56:59Z
2019-05-25T09:59:47Z,42.805,6.029,13.2951,4.59954,2469.634,2019-5-25T12:00:02Z
2019-05-25T10:02:50Z,42.805,6.029,13.2951,4.59953,2469.634,2019-5-25T12:03:05Z
2019-05-25T10:05:53Z,42.805,6.029,13.2953,4.59952,2469.597,2019-5-25T12:06:08Z
2019-05-25T10:08:56Z,42.805,6.029,13.2948,4.59952,2469.62,2019-5-25T12:09:11Z
2019-05-25T10:11:59Z,42.805,6.029,13.2952,4.59951,2469.634,2019-5-25T12:12:14Z
2019-05-25T10:15:02Z,42.805,6.029,13.2954,4.59952,2469.634,2019-5-25T12:15:17Z
2019-05-25T10:18:05Z,42.805,6.029,13.2952,4.59954,2469.62,2019-5-25T12:18:20Z
2019-05-25T10:21:08Z,42.805,6.029,13.2951,4.59951,2469.62,2019-5-25T12:21:23Z
2019-05-25T10:24:11Z,42.805,6.029,13.2953,4.59954,2469.62,2019-5-25T12:24:26Z
2019-05-25T10:27:14Z,42.805,6.029,13.2952,4.59951,2469.573,2019-5-25T12:27:29Z
2019-05-25T10:30:17Z,42.805,6.029,13.2951,4.59951,2469.61,2019-5-25T12:30:32Z
2019-05-25T10:33:20Z,42.805,6.029,13.2950,4.59950,2469.634,2019-5-25T12:33:35Z
2019-05-25T10:36:23Z,42.805,6.029,13.2949,4.59951,2469.597,2019-5-25T12:36:37Z
2019-05-25T10:39:26Z,42.805,6.029,13.2953,4.59952,2469.62,2019-5-25T12:39:40Z
2019-05-25T10:42:29Z,42.805,6.029,13.2951,4.59953,2469.634,2019-5-25T12:42:43Z
2019-05-25T10:45:32Z,42.805,6.029,13.2953,4.59954,2469.597,2019-5-25T12:45:46Z
2019-05-25T10:48:35Z,42.805,6.029,13.2950,4.59952,2469.597,2019-5-25T12:48:49Z
2019-05-25T10:51:38Z,42.805,6.029,13.2951,4.59959,2469.634,2019-5-25T12:51:52Z
2019-05-25T10:54:41Z,42.805,6.029,13.2953,4.59951,2469.62,2019-5-25T12:54:55Z
2019-05-25T10:57:44Z,42.805,6.029,13.2952,4.59952,2469.634,2019-5-25T12:57:58Z
2019-05-25T11:00:47Z,42.805,6.029,13.2949,4.59951,2469.634,2019-5-25T13:01:01Z
2019-05-25T11:03:50Z,42.805,6.029,13.2952,4.59951,2469.597,2019-5-25T13:04:04Z
2019-05-25T11:06:52Z,42.805,6.029,13.2952,4.59951,2469.634,2019-5-25T13:07:07Z
2019-05-25T11:09:55Z,42.805,6.029,13.2948,4.59951,2469.62,2019-5-25T13:10:10Z
2019-05-25T11:12:58Z,42.805,6.029,13.2951,4.59952,2469.634,2019-5-25T13:13:13Z
2019-05-25T11:16:01Z,42.805,6.029,13.2953,4.59951,2469.634,2019-5-25T13:16:16Z
2019-05-25T11:19:04Z,42.805,6.029,13.2951,4.59948,2469.62,2019-5-25T13:19:19Z
2019-05-25T11:22:07Z,42.805,6.029,13.2950,4.59950,2469.61,2019-5-25T13:22:22Z
2019-05-25T11:25:10Z,42.805,6.029,13.2949,4.59951,2469.62,2019-5-25T13:25:25Z
2019-05-25T11:28:13Z,42.805,6.029,13.2952,4.59951,2469.643,2019-5-25T13:28:28Z
2019-05-25T11:31:16Z,42.805,6.029,13.2950,4.59954,2469.597,2019-5-25T13:31:31Z
2019-05-25T11:34:19Z,42.805,6.029,13.2952,4.59950,2469.62,2019-5-25T13:34:34Z
2019-05-25T11:37:22Z,42.805,6.029,13.2949,4.59949,2469.634,2019-5-25T13:37:37Z
2019-05-25T11:40:25Z,42.805,6.029,13.2953,4.59950,2469.62,2019-5-25T13:40:39Z
2019-05-25T11:43:28Z,42.805,6.029,13.2952,4.59951,2469.61,2019-5-25T13:43:42Z
2019-05-25T11:46:31Z,42.805,6.029,13.2952,4.59950,2469.597,2019-5-25T13:46:45Z
2019-05-25T11:49:34Z,42.805,6.029,13.2949,4.59949,2469.587,2019-5-25T13:49:48Z
2019-05-25T11:52:37Z,42.805,6.029,13.2951,4.59950,2469.573,2019-5-25T13:52:51Z
2019-05-25T11:55:40Z,42.805,6.029,13.2949,4.59950,2469.643,2019-5-25T13:55:54Z
2019-05-25T11:58:43Z,42.805,6.029,13.2952,4.59950,2469.597,2019-5-25T13:58:57Z
2019-05-25T12:01:46Z,42.805,6.029,13.2956,4.59952,2469.61,2019-5-25T14:02:00Z
2019-05-25T12:04:49Z,42.805,6.029,13.2947,4.59954,2469.643,2019-5-25T14:05:03Z
2019-05-25T12:07:52Z,42.805,6.029,13.2952,4.59949,2469.597,2019-5-25T14:08:06Z
2019-05-25T12:10:54Z,42.805,6.029,13.2952,4.59950,2469.597,2019-5-25T14:11:09Z
2019-05-25T12:13:57Z,42.805,6.029,13.2953,4.59951,2469.597,2019-5-25T14:14:12Z
2019-05-25T12:17:00Z,42.805,6.029,13.2953,4.59949,2469.62,2019-5-25T14:17:15Z
2019-05-25T12:20:03Z,42.805,6.029,13.2954,4.59951,2469.643,2019-5-25T14:20:18Z
2019-05-25T12:23:06Z,42.805,6.029,13.2952,4.59952,2469.61,2019-5-25T14:23:21Z
2019-05-25T12:26:09Z,42.805,6.029,13.2948,4.59953,2469.634,2019-5-25T14:26:24Z
2019-05-25T12:29:12Z,42.805,6.029,13.2952,4.59951,2469.61,2019-5-25T14:29:27Z
2019-05-25T12:32:15Z,42.805,6.029,13.2949,4.59951,2469.573,2019-5-25T14:32:30Z
2019-05-25T12:35:18Z,42.805,6.029,13.2945,4.59951,2469.61,2019-5-25T14:35:33Z
2019-05-25T12:38:21Z,42.805,6.029,13.2949,4.59950,2469.61,2019-5-25T14:38:36Z
2019-05-25T12:41:24Z,42.805,6.029,13.2950,4.59954,2469.62,2019-5-25T14:41:39Z
2019-05-25T12:44:27Z,42.805,6.029,13.2953,4.59949,2469.634,2019-5-25T14:44:42Z
2019-05-25T12:47:30Z,42.805,6.029,13.2951,4.59952,2469.62,2019-5-25T14:47:44Z
2019-05-25T12:50:33Z,42.805,6.029,13.2952,4.59950,2469.61,2019-5-25T14:50:47Z
2019-05-25T12:53:36Z,42.805,6.029,13.2952,4.59956,2469.61,2019-5-25T14:53:50Z
2019-05-25T12:56:39Z,42.805,6.029,13.2951,4.59949,2469.62,2019-5-25T14:56:53Z
2019-05-25T12:59:42Z,42.805,6.029,13.2951,4.59950,2469.62,2019-5-25T14:59:56Z
2019-05-25T13:02:45Z,42.805,6.029,13.2948,4.59950,2469.61,2019-5-25T15:02:59Z
2019-05-25T13:05:48Z,42.805,6.029,13.2951,4.59949,2469.597,2019-5-25T15:06:02Z
2019-05-25T13:08:51Z,42.805,6.029,13.2952,4.59951,2469.61,2019-5-25T15:09:05Z
2019-05-25T13:11:54Z,42.805,6.029,13.2948,4.59952,2469.597,2019-5-25T15:12:08Z
2019-05-25T13:14:56Z,42.805,6.029,13.2950,4.59950,2469.597,2019-5-25T15:15:11Z
2019-05-25T13:17:59Z,42.805,6.029,13.2949,4.59953,2469.587,2019-5-25T15:18:14Z
2019-05-25T13:21:02Z,42.805,6.029,13.2950,4.59951,2469.597,2019-5-25T15:21:17Z
2019-05-25T13:24:05Z,42.805,6.029,13.2948,4.59952,2469.573,2019-5-25T15:24:20Z
2019-05-25T13:27:08Z,42.805,6.029,13.2953,4.59950,2469.563,2019-5-25T15:27:23Z
2019-05-25T13:30:11Z,42.805,6.029,13.2950,4.59950,2469.61,2019-5-25T15:30:26Z
2019-05-25T13:33:14Z,42.805,6.029,13.2957,4.59949,2469.61,2019-5-25T15:33:29Z
2019-05-25T13:36:17Z,42.805,6.029,13.2949,4.59949,2469.606,2019-5-25T15:36:32Z
2019-05-25T13:39:20Z,42.805,6.029,13.2951,4.59950,2469.634,2019-5-25T15:39:35Z
2019-05-25T13:42:23Z,42.805,6.029,13.2953,4.59953,2469.573,2019-5-25T15:42:38Z
2019-05-25T13:45:26Z,42.805,6.029,13.2953,4.59953,2469.597,2019-5-25T15:45:41Z
2019-05-25T13:48:29Z,42.805,6.029,13.2950,4.59948,2469.597,2019-5-25T15:48:44Z
2019-05-25T13:51:32Z,42.805,6.029,13.2949,4.59949,2469.587,2019-5-25T15:51:47Z
2019-05-25T13:54:35Z,42.805,6.029,13.2951,4.59948,2469.573,2019-5-25T15:54:49Z
2019-05-25T13:57:38Z,42.805,6.029,13.2952,4.59950,2469.61,2019-5-25T15:57:52Z
2019-05-25T14:00:41Z,42.805,6.029,13.2952,4.59951,2469.587,2019-5-25T16:00:55Z
2019-05-25T14:03:44Z,42.805,6.029,13.2955,4.59950,2469.61,2019-5-25T16:03:58Z
2019-05-25T14:06:47Z,42.805,6.029,13.2955,4.59951,2469.61,2019-5-25T16:07:01Z
2019-05-25T14:09:50Z,42.805,6.029,13.2952,4.59948,2469.573,2019-5-25T16:10:04Z
2019-05-25T14:12:53Z,42.805,6.029,13.2948,4.59863,2469.587,2019-5-25T16:13:07Z
2019-05-25T14:15:56Z,42.805,6.029,13.2952,4.59949,2469.573,2019-5-25T16:16:10Z
2019-05-25T14:18:59Z,42.805,6.029,13.2952,4.59952,2469.573,2019-5-25T16:19:13Z
2019-05-25T14:22:01Z,42.805,6.029,13.2951,4.59951,2469.573,2019-5-25T16:22:16Z
2019-05-25T14:25:04Z,42.805,6.029,13.2949,4.59949,2469.62,2019-5-25T16:25:19Z
2019-05-25T14:28:07Z,42.805,6.029,13.2957,4.59951,2469.62,2019-5-25T16:28:22Z
2019-05-25T14:31:10Z,42.805,6.029,13.2952,4.59949,2469.587,2019-5-25T16:31:25Z
2019-05-25T14:34:13Z,42.805,6.029,13.2948,4.59949,2469.61,2019-5-25T16:34:28Z
2019-05-25T14:37:16Z,42.805,6.029,13.2951,4.59951,2469.563,2019-5-25T16:37:31Z
2019-05-25T14:40:19Z,42.805,6.029,13.2953,4.59950,2469.587,2019-5-25T16:40:34Z
2019-05-25T14:43:22Z,42.805,6.029,13.2950,4.59949,2469.587,2019-5-25T16:43:37Z
2019-05-25T14:46:25Z,42.805,6.029,13.2952,4.59949,2469.587,2019-5-25T16:46:40Z
2019-05-25T14:49:28Z,42.805,6.029,13.2948,4.59950,2469.61,2019-5-25T16:49:43Z
2019-05-25T14:52:31Z,42.805,6.029,13.2952,4.59950,2469.563,2019-5-25T16:52:46Z
2019-05-25T14:55:34Z,42.805,6.029,13.2952,4.59950,2469.597,2019-5-25T16:55:49Z
2019-05-25T14:58:37Z,42.805,6.029,13.2949,4.59953,2469.563,2019-5-25T16:58:51Z
2019-05-25T15:01:40Z,42.805,6.029,13.2952,4.59949,2469.597,2019-5-25T17:01:54Z
2019-05-25T15:04:43Z,42.805,6.029,13.2952,4.59949,2469.573,2019-5-25T17:04:57Z
2019-05-25T15:07:46Z,42.805,6.029,13.2952,4.59949,2469.587,2019-5-25T17:08:00Z
2019-05-25T15:10:49Z,42.805,6.029,13.2948,4.59948,2469.597,2019-5-25T17:11:03Z
2019-05-25T15:13:52Z,42.805,6.029,13.2953,4.59950,2469.61,2019-5-25T17:14:06Z